Time,TemperatureF,DewpointF,PressureIn,WindDirection,WindDirectionDegrees,WindSpeedMPH,WindSpeedGustMPH,Humidity,HourlyPrecipIn,Conditions,Clouds,dailyrainin,SoftwareType,DateUTC
2013-03-01 00:00:00,32.0,30.7,29.27,North,360,1.0,9.0,95,0.00,,,0.00,Weather View 32 v70,2013-03-01 05:00:00,
2013-03-01 00:05:00,32.0,30.7,29.28,NW,315,0.0,9.0,95,0.00,,,0.00,Weather View 32 v70,2013-03-01 05:05:00,
2013-03-01 00:07:00,32.0,30.7,29.28,NW,315,0.0,9.0,95,0.00,,,0.00,Weather View 32 v70,2013-03-01 05:07:00,
2013-03-01 00:15:00,33.0,31.7,29.27,NW,315,3.0,9.0,95,0.00,,,0.00,Weather View 32 v70,2013-03-01 05:15:00,
2013-03-01 00:20:00,33.0,31.7,29.27,NW,315,5.0,9.0,95,0.00,,,0.00,Weather View 32 v70,2013-03-01 05:20:00,
2013-03-01 00:25:00,32.0,30.7,29.27,NNW,337,6.0,9.0,95,0.00,,,0.00,Weather View 32 v70,2013-03-01 05:25:00,
2013-03-01 00:35:00,32.0,30.7,29.27,North,360,6.0,10.0,95,0.00,,,0.00,Weather View 32 v70,2013-03-01 05:35:00,
2013-03-01 00:40:00,32.0,30.7,29.27,North,360,4.0,10.0,95,0.00,,,0.00,Weather View 32 v70,2013-03-01 05:40:00,
2013-03-01 00:50:00,32.0,30.7,29.28,North,360,0.0,10.0,95,0.00,,,0.00,Weather View 32 v70,2013-03-01 05:50:00,
2013-03-01 00:55:00,32.0,30.7,29.28,North,360,2.0,10.0,95,0.00,,,0.00,Weather View 32 v70,2013-03-01 05:55:00,
2013-03-01 01:00:00,31.0,29.7,29.28,NNE,22,2.0,10.0,95,0.00,,,0.00,Weather View 32 v70,2013-03-01 06:00:00,
2013-03-01 01:05:00,31.0,29.7,29.29,NE,45,1.0,10.0,95,0.00,,,0.00,Weather View 32 v70,2013-03-01 06:05:00,
2013-03-01 01:15:00,31.0,29.7,29.29,NE,45,0.0,10.0,95,0.00,,,0.00,Weather View 32 v70,2013-03-01 06:15:00,
2013-03-01 01:20:00,31.0,29.7,29.29,North,360,3.0,10.0,95,0.00,,,0.00,Weather View 32 v70,2013-03-01 06:20:00,
2013-03-01 01:25:00,31.0,29.7,29.28,NNE,22,2.0,10.0,95,0.00,,,0.00,Weather View 32 v70,2013-03-01 06:25:00,
2013-03-01 01:30:00,31.0,29.7,29.28,North,360,1.0,10.0,95,0.00,,,0.00,Weather View 32 v70,2013-03-01 06:30:00,
2013-03-01 01:40:00,31.0,29.7,29.28,NNW,337,0.0,8.0,95,0.00,,,0.00,Weather View 32 v70,2013-03-01 06:40:00,
2013-03-01 01:50:00,31.0,29.7,29.28,NNE,22,3.0,12.0,95,0.00,,,0.00,Weather View 32 v70,2013-03-01 06:50:00,
2013-03-01 01:55:00,31.0,29.7,29.28,NNW,337,4.0,12.0,95,0.00,,,0.00,Weather View 32 v70,2013-03-01 06:55:00,
2013-03-01 02:05:00,31.0,29.7,29.27,North,360,3.0,12.0,95,0.00,,,0.00,Weather View 32 v70,2013-03-01 07:05:00,
2013-03-01 02:10:00,31.0,29.7,29.27,NNW,337,7.0,12.0,95,0.00,,,0.00,Weather View 32 v70,2013-03-01 07:10:00,
2013-03-01 02:15:00,31.0,29.7,29.27,NNW,337,4.0,12.0,95,0.00,,,0.00,Weather View 32 v70,2013-03-01 07:15:00,
2013-03-01 02:25:00,31.0,29.7,29.28,North,360,3.0,12.0,95,0.00,,,0.00,Weather View 32 v70,2013-03-01 07:25:00,
2013-03-01 02:30:00,31.0,29.7,29.28,North,360,3.0,12.0,95,0.00,,,0.00,Weather View 32 v70,2013-03-01 07:30:00,
2013-03-01 02:35:00,31.0,29.7,29.27,North,360,4.0,12.0,95,0.00,,,0.00,Weather View 32 v70,2013-03-01 07:35:00,
2013-03-01 02:40:00,31.0,29.7,29.27,ENE,67,1.0,12.0,95,0.00,,,0.00,Weather View 32 v70,2013-03-01 07:40:00,
2013-03-01 02:45:00,31.0,29.7,29.27,NW,315,3.0,12.0,95,0.00,,,0.00,Weather View 32 v70,2013-03-01 07:45:00,
2013-03-01 02:50:00,31.0,29.7,29.27,NNE,22,4.0,10.0,95,0.00,,,0.00,Weather View 32 v70,2013-03-01 07:50:00,
2013-03-01 03:00:00,31.0,29.7,29.27,NE,45,2.0,10.0,95,0.00,,,0.00,Weather View 32 v70,2013-03-01 08:00:00,
2013-03-01 03:09:00,31.0,29.7,29.27,NW,315,2.0,10.0,95,0.00,,,0.00,Weather View 32 v70,2013-03-01 08:09:00,
2013-03-01 03:15:00,31.0,29.7,29.27,NNW,337,6.0,9.0,95,0.00,,,0.00,Weather View 32 v70,2013-03-01 08:15:00,
2013-03-01 03:25:00,31.0,29.7,29.28,NNW,337,2.0,9.0,95,0.00,,,0.00,Weather View 32 v70,2013-03-01 08:25:00,
2013-03-01 03:30:00,31.0,29.7,29.28,North,360,4.0,9.0,95,0.00,,,0.00,Weather View 32 v70,2013-03-01 08:30:00,
2013-03-01 03:35:00,31.0,29.7,29.28,NNW,337,4.0,9.0,95,0.00,,,0.00,Weather View 32 v70,2013-03-01 08:35:00,
2013-03-01 03:40:00,31.0,29.7,29.28,North,360,7.0,9.0,95,0.00,,,0.00,Weather View 32 v70,2013-03-01 08:40:00,
2013-03-01 03:45:00,31.0,29.7,29.28,NNW,337,1.0,9.0,95,0.00,,,0.00,Weather View 32 v70,2013-03-01 08:45:00,
2013-03-01 03:50:00,30.0,28.7,29.28,North,360,1.0,9.0,95,0.00,,,0.00,Weather View 32 v70,2013-03-01 08:50:00,
2013-03-01 04:00:00,30.0,28.7,29.29,NNW,337,1.0,9.0,95,0.00,,,0.00,Weather View 32 v70,2013-03-01 09:00:00,
2013-03-01 04:05:00,31.0,29.7,29.29,NNW,337,5.0,9.0,95,0.00,,,0.00,Weather View 32 v70,2013-03-01 09:05:00,
2013-03-01 04:10:00,31.0,29.7,29.29,NNW,337,6.0,9.0,95,0.00,,,0.00,Weather View 32 v70,2013-03-01 09:10:00,
2013-03-01 04:15:00,31.0,29.7,29.29,North,360,6.0,9.0,95,0.00,,,0.00,Weather View 32 v70,2013-03-01 09:15:00,
2013-03-01 04:25:00,31.0,29.7,29.29,North,360,1.0,9.0,95,0.00,,,0.00,Weather View 32 v70,2013-03-01 09:25:00,
2013-03-01 04:30:00,31.0,29.7,29.29,North,360,1.0,9.0,95,0.00,,,0.00,Weather View 32 v70,2013-03-01 09:30:00,
2013-03-01 04:35:00,31.0,29.7,29.29,North,360,2.0,9.0,95,0.00,,,0.00,Weather View 32 v70,2013-03-01 09:35:00,
2013-03-01 04:40:00,31.0,29.7,29.29,North,360,2.0,9.0,95,0.00,,,0.00,Weather View 32 v70,2013-03-01 09:40:00,
2013-03-01 04:45:00,31.0,29.7,29.29,NNE,22,0.0,9.0,95,0.00,,,0.00,Weather View 32 v70,2013-03-01 09:45:00,
2013-03-01 04:55:00,31.0,29.7,29.29,NW,315,5.0,9.0,95,0.00,,,0.00,Weather View 32 v70,2013-03-01 09:55:00,
2013-03-01 05:00:00,31.0,29.7,29.29,NW,315,2.0,9.0,95,0.00,,,0.00,Weather View 32 v70,2013-03-01 10:00:00,
2013-03-01 05:05:00,31.0,29.7,29.29,North,360,5.0,9.0,95,0.00,,,0.00,Weather View 32 v70,2013-03-01 10:05:00,
2013-03-01 05:10:00,31.0,29.7,29.29,NNW,337,0.0,9.0,95,0.00,,,0.00,Weather View 32 v70,2013-03-01 10:10:00,
2013-03-01 05:20:00,30.0,28.7,29.29,NNW,337,4.0,9.0,95,0.00,,,0.00,Weather View 32 v70,2013-03-01 10:20:00,
2013-03-01 05:25:00,30.0,28.7,29.30,NNW,337,6.0,9.0,95,0.00,,,0.00,Weather View 32 v70,2013-03-01 10:25:00,
2013-03-01 05:30:00,30.0,28.7,29.30,NW,315,3.0,9.0,95,0.00,,,0.00,Weather View 32 v70,2013-03-01 10:30:00,
2013-03-01 05:35:00,30.0,28.7,29.30,NNW,337,2.0,9.0,95,0.00,,,0.00,Weather View 32 v70,2013-03-01 10:35:00,
2013-03-01 05:50:00,30.0,28.7,29.30,NW,315,7.0,9.0,95,0.00,,,0.00,Weather View 32 v70,2013-03-01 10:50:00,
2013-03-01 06:00:00,30.0,28.7,29.30,NNW,337,4.0,8.0,95,0.00,,,0.00,Weather View 32 v70,2013-03-01 11:00:00,
2013-03-01 06:05:00,30.0,28.7,29.30,NNW,337,1.0,8.0,95,0.00,,,0.00,Weather View 32 v70,2013-03-01 11:05:00,
2013-03-01 06:10:00,30.0,28.7,29.30,NNW,337,3.0,8.0,95,0.00,,,0.00,Weather View 32 v70,2013-03-01 11:10:00,
2013-03-01 06:20:00,30.0,28.7,29.30,North,360,4.0,9.0,95,0.00,,,0.00,Weather View 32 v70,2013-03-01 11:20:00,
2013-03-01 06:25:00,30.0,28.7,29.31,NNW,337,3.0,9.0,95,0.00,,,0.00,Weather View 32 v70,2013-03-01 11:25:00,
2013-03-01 06:30:00,30.0,28.7,29.31,NNW,337,4.0,9.0,95,0.00,,,0.00,Weather View 32 v70,2013-03-01 11:30:00,
2013-03-01 06:35:00,30.0,28.7,29.31,NNW,337,2.0,9.0,95,0.00,,,0.00,Weather View 32 v70,2013-03-01 11:35:00,
2013-03-01 06:40:00,30.0,28.7,29.31,NNW,337,3.0,9.0,95,0.00,,,0.00,Weather View 32 v70,2013-03-01 11:40:00,
2013-03-01 06:50:00,30.0,28.7,29.31,NNW,337,3.0,9.0,95,0.00,,,0.00,Weather View 32 v70,2013-03-01 11:50:00,
2013-03-01 06:55:00,30.0,28.7,29.32,NNW,337,5.0,9.0,95,0.00,,,0.00,Weather View 32 v70,2013-03-01 11:55:00,
2013-03-01 07:00:00,30.0,28.7,29.32,North,360,2.0,9.0,95,0.00,,,0.00,Weather View 32 v70,2013-03-01 12:00:00,
2013-03-01 07:05:00,30.0,28.7,29.31,North,360,0.0,9.0,95,0.00,,,0.00,Weather View 32 v70,2013-03-01 12:05:00,
2013-03-01 07:10:00,30.0,28.7,29.31,NNE,22,0.0,9.0,95,0.00,,,0.00,Weather View 32 v70,2013-03-01 12:10:00,
2013-03-01 07:15:00,31.0,29.7,29.32,North,360,4.0,8.0,95,0.00,,,0.00,Weather View 32 v70,2013-03-01 12:15:00,
2013-03-01 07:25:00,31.0,29.7,29.32,NE,45,4.0,9.0,95,0.00,,,0.00,Weather View 32 v70,2013-03-01 12:25:00,
2013-03-01 07:30:00,31.0,29.5,29.32,North,360,3.0,9.0,94,0.00,,,0.00,Weather View 32 v70,2013-03-01 12:30:00,
2013-03-01 07:35:00,31.0,29.5,29.33,North,360,2.0,9.0,94,0.00,,,0.00,Weather View 32 v70,2013-03-01 12:35:00,
2013-03-01 07:40:00,31.0,29.2,29.33,NW,315,1.0,9.0,93,0.00,,,0.00,Weather View 32 v70,2013-03-01 12:40:00,
2013-03-01 07:45:00,32.0,30.2,29.33,NNE,22,5.0,9.0,93,0.00,,,0.00,Weather View 32 v70,2013-03-01 12:45:00,
2013-03-01 07:55:00,33.0,30.4,29.33,North,360,9.0,10.0,90,0.00,,,0.00,Weather View 32 v70,2013-03-01 12:55:00,
2013-03-01 08:00:00,33.0,30.1,29.33,North,360,8.0,11.0,89,0.00,,,0.00,Weather View 32 v70,2013-03-01 13:00:00,
2013-03-01 08:05:00,34.0,30.5,29.32,South,180,6.0,11.0,87,0.00,,,0.00,Weather View 32 v70,2013-03-01 13:05:00,
2013-03-01 08:10:00,35.0,30.9,29.32,North,360,6.0,11.0,85,0.00,,,0.00,Weather View 32 v70,2013-03-01 13:10:00,
2013-03-01 08:15:00,35.0,31.8,29.31,NNE,22,0.0,15.0,88,0.00,,,0.00,Weather View 32 v70,2013-03-01 13:15:00,
2013-03-01 08:25:00,37.0,31.4,29.31,NE,45,5.0,15.0,80,0.00,,,0.00,Weather View 32 v70,2013-03-01 13:25:00,
2013-03-01 08:30:00,37.0,31.1,29.31,NNE,22,8.0,15.0,79,0.00,,,0.00,Weather View 32 v70,2013-03-01 13:30:00,
2013-03-01 08:35:00,36.0,30.4,29.31,NNW,337,5.0,15.0,80,0.00,,,0.00,Weather View 32 v70,2013-03-01 13:35:00,
2013-03-01 08:40:00,36.0,30.4,29.31,NW,315,5.0,15.0,80,0.00,,,0.00,Weather View 32 v70,2013-03-01 13:40:00,
2013-03-01 08:45:00,36.0,30.7,29.31,NNE,22,5.0,15.0,81,0.00,,,0.00,Weather View 32 v70,2013-03-01 13:45:00,
2013-03-01 08:55:00,36.0,31.0,29.32,ENE,67,1.0,15.0,82,0.00,,,0.00,Weather View 32 v70,2013-03-01 13:55:00,
2013-03-01 09:00:00,36.0,30.7,29.32,NNE,22,3.0,15.0,81,0.00,,,0.00,Weather View 32 v70,2013-03-01 14:00:00,
2013-03-01 09:05:00,36.0,30.4,29.32,NNW,337,7.0,15.0,80,0.00,,,0.00,Weather View 32 v70,2013-03-01 14:05:00,
2013-03-01 09:10:00,36.0,30.4,29.32,NE,45,6.0,15.0,80,0.00,,,0.00,Weather View 32 v70,2013-03-01 14:10:00,
2013-03-01 09:20:00,36.0,29.8,29.32,ENE,67,9.0,15.0,78,0.01,,,0.01,Weather View 32 v70,2013-03-01 14:20:00,
2013-03-01 09:25:00,37.0,30.8,29.32,NE,45,8.0,15.0,78,0.01,,,0.01,Weather View 32 v70,2013-03-01 14:25:00,
2013-03-01 09:30:00,36.0,29.8,29.32,NW,315,7.0,15.0,78,0.01,,,0.01,Weather View 32 v70,2013-03-01 14:30:00,
2013-03-01 09:35:00,37.0,30.8,29.33,NE,45,7.0,15.0,78,0.01,,,0.01,Weather View 32 v70,2013-03-01 14:35:00,
2013-03-01 09:40:00,37.0,30.8,29.33,NNW,337,6.0,15.0,78,0.01,,,0.01,Weather View 32 v70,2013-03-01 14:40:00,
2013-03-01 09:45:00,37.0,30.5,29.32,North,360,9.0,15.0,77,0.01,,,0.01,Weather View 32 v70,2013-03-01 14:45:00,
2013-03-01 09:55:00,37.0,30.8,29.33,North,360,8.0,15.0,78,0.01,,,0.01,Weather View 32 v70,2013-03-01 14:55:00,
2013-03-01 10:00:00,37.0,30.8,29.33,NNE,22,7.0,15.0,78,0.01,,,0.01,Weather View 32 v70,2013-03-01 15:00:00,
2013-03-01 10:10:00,36.0,29.8,29.33,NE,45,2.0,15.0,78,0.02,,,0.02,Weather View 32 v70,2013-03-01 15:10:00,
2013-03-01 10:20:00,37.0,30.5,29.32,WNW,292,4.0,17.0,77,0.01,,,0.02,Weather View 32 v70,2013-03-01 15:20:00,
2013-03-01 10:25:00,37.0,30.5,29.32,ENE,67,0.0,17.0,77,0.01,,,0.02,Weather View 32 v70,2013-03-01 15:25:00,
2013-03-01 10:30:00,38.0,31.4,29.32,WSW,247,1.0,17.0,77,0.01,,,0.02,Weather View 32 v70,2013-03-01 15:30:00,
2013-03-01 10:35:00,38.0,31.7,29.32,NE,45,3.0,17.0,78,0.01,,,0.02,Weather View 32 v70,2013-03-01 15:35:00,
2013-03-01 10:40:00,38.0,31.4,29.32,NW,315,9.0,17.0,77,0.01,,,0.02,Weather View 32 v70,2013-03-01 15:40:00,
2013-03-01 10:50:00,38.0,31.4,29.31,SSW,202,1.0,17.0,77,0.02,,,0.03,Weather View 32 v70,2013-03-01 15:50:00,
2013-03-01 10:55:00,38.0,31.4,29.32,NE,45,3.0,17.0,77,0.02,,,0.03,Weather View 32 v70,2013-03-01 15:55:00,
2013-03-01 11:00:00,38.0,31.4,29.32,ENE,67,2.0,17.0,77,0.03,,,0.04,Weather View 32 v70,2013-03-01 16:00:00,
2013-03-01 11:05:00,38.0,31.1,29.32,NE,45,5.0,17.0,76,0.02,,,0.04,Weather View 32 v70,2013-03-01 16:05:00,
2013-03-01 11:10:00,38.0,31.4,29.32,NNE,22,0.0,17.0,77,0.02,,,0.04,Weather View 32 v70,2013-03-01 16:10:00,
2013-03-01 11:20:00,38.0,31.1,29.32,NNE,22,1.0,17.0,76,0.03,,,0.05,Weather View 32 v70,2013-03-01 16:20:00,
2013-03-01 11:25:00,38.0,31.1,29.32,North,360,10.0,18.0,76,0.03,,,0.05,Weather View 32 v70,2013-03-01 16:25:00,
2013-03-01 11:30:00,38.0,31.1,29.32,NNW,337,10.0,18.0,76,0.04,,,0.06,Weather View 32 v70,2013-03-01 16:30:00,
2013-03-01 11:35:00,38.0,31.1,29.32,ESE,112,1.0,18.0,76,0.04,,,0.06,Weather View 32 v70,2013-03-01 16:35:00,
2013-03-01 11:40:00,38.0,31.4,29.32,ENE,67,7.0,18.0,77,0.04,,,0.06,Weather View 32 v70,2013-03-01 16:40:00,
2013-03-01 11:50:00,38.0,31.1,29.33,NNE,22,7.0,18.0,76,0.04,,,0.07,Weather View 32 v70,2013-03-01 16:50:00,
2013-03-01 11:55:00,37.0,30.5,29.33,NE,45,2.0,18.0,77,0.04,,,0.07,Weather View 32 v70,2013-03-01 16:55:00,
2013-03-01 12:00:00,37.0,30.5,29.33,WNW,292,0.0,18.0,77,0.03,,,0.07,Weather View 32 v70,2013-03-01 17:00:00,
2013-03-01 12:10:00,38.0,31.1,29.33,North,360,9.0,18.0,76,0.04,,,0.08,Weather View 32 v70,2013-03-01 17:10:00,
2013-03-01 12:15:00,38.0,31.1,29.33,ESE,112,8.0,18.0,76,0.03,,,0.08,Weather View 32 v70,2013-03-01 17:15:00,
2013-03-01 12:20:00,37.0,30.1,29.33,NNE,22,6.0,18.0,76,0.03,,,0.08,Weather View 32 v70,2013-03-01 17:20:00,
2013-03-01 12:25:00,37.0,30.5,29.33,NNE,22,1.0,15.0,77,0.03,,,0.08,Weather View 32 v70,2013-03-01 17:25:00,
2013-03-01 12:30:00,38.0,31.4,29.33,North,360,5.0,15.0,77,0.02,,,0.08,Weather View 32 v70,2013-03-01 17:30:00,
2013-03-01 12:40:00,37.0,30.5,29.33,North,360,2.0,15.0,77,0.03,,,0.09,Weather View 32 v70,2013-03-01 17:40:00,
2013-03-01 12:45:00,37.0,30.8,29.34,North,360,6.0,15.0,78,0.03,,,0.09,Weather View 32 v70,2013-03-01 17:45:00,
2013-03-01 12:50:00,37.0,30.8,29.34,NE,45,6.0,15.0,78,0.02,,,0.09,Weather View 32 v70,2013-03-01 17:50:00,
2013-03-01 12:55:00,37.0,30.8,29.33,North,360,1.0,15.0,78,0.02,,,0.09,Weather View 32 v70,2013-03-01 17:55:00,
2013-03-01 13:05:00,37.0,31.1,29.33,North,360,0.0,15.0,79,0.03,,,0.10,Weather View 32 v70,2013-03-01 18:05:00,
2013-03-01 13:10:00,37.0,31.4,29.33,NW,315,6.0,15.0,80,0.02,,,0.10,Weather View 32 v70,2013-03-01 18:10:00,
2013-03-01 13:15:00,37.0,30.8,29.33,North,360,7.0,15.0,78,0.02,,,0.10,Weather View 32 v70,2013-03-01 18:15:00,
2013-03-01 13:20:00,37.0,30.8,29.33,North,360,7.0,13.0,78,0.02,,,0.10,Weather View 32 v70,2013-03-01 18:20:00,
2013-03-01 13:25:00,37.0,30.8,29.33,ENE,67,6.0,13.0,78,0.02,,,0.10,Weather View 32 v70,2013-03-01 18:25:00,
2013-03-01 13:30:00,37.0,31.1,29.33,NW,315,7.0,11.0,79,0.02,,,0.10,Weather View 32 v70,2013-03-01 18:30:00,
2013-03-01 13:40:00,37.0,30.8,29.33,ENE,67,2.0,11.0,78,0.01,,,0.10,Weather View 32 v70,2013-03-01 18:40:00,
2013-03-01 13:45:00,37.0,31.1,29.33,North,360,3.0,11.0,79,0.02,,,0.11,Weather View 32 v70,2013-03-01 18:45:00,
2013-03-01 13:50:00,37.0,30.8,29.33,NNE,22,0.0,11.0,78,0.02,,,0.11,Weather View 32 v70,2013-03-01 18:50:00,
2013-03-01 13:55:00,37.0,31.1,29.33,NW,315,5.0,11.0,79,0.02,,,0.11,Weather View 32 v70,2013-03-01 18:55:00,
2013-03-01 14:05:00,37.0,30.8,29.33,North,360,6.0,13.0,78,0.01,,,0.11,Weather View 32 v70,2013-03-01 19:05:00,
2013-03-01 14:10:00,37.0,31.1,29.33,NE,45,4.0,13.0,79,0.01,,,0.11,Weather View 32 v70,2013-03-01 19:10:00,
2013-03-01 14:15:00,37.0,31.1,29.33,NW,315,3.0,13.0,79,0.01,,,0.11,Weather View 32 v70,2013-03-01 19:15:00,
2013-03-01 14:25:00,37.0,31.1,29.33,North,360,8.0,13.0,79,0.02,,,0.12,Weather View 32 v70,2013-03-01 19:25:00,
2013-03-01 14:35:00,37.0,30.8,29.33,North,360,6.0,13.0,78,0.02,,,0.12,Weather View 32 v70,2013-03-01 19:35:00,
2013-03-01 14:40:00,37.0,30.8,29.33,NNW,337,12.0,13.0,78,0.02,,,0.12,Weather View 32 v70,2013-03-01 19:40:00,
2013-03-01 14:45:00,37.0,30.8,29.33,North,360,6.0,13.0,78,0.01,,,0.12,Weather View 32 v70,2013-03-01 19:45:00,
2013-03-01 14:50:00,37.0,31.1,29.33,NNW,337,5.0,13.0,79,0.01,,,0.12,Weather View 32 v70,2013-03-01 19:50:00,
2013-03-01 14:55:00,37.0,30.8,29.33,NW,315,7.0,13.0,78,0.01,,,0.12,Weather View 32 v70,2013-03-01 19:55:00,
2013-03-01 15:05:00,37.0,30.8,29.33,NNW,337,11.0,14.0,78,0.01,,,0.12,Weather View 32 v70,2013-03-01 20:05:00,
2013-03-01 15:10:00,37.0,30.8,29.33,North,360,7.0,18.0,78,0.02,,,0.13,Weather View 32 v70,2013-03-01 20:10:00,
2013-03-01 15:15:00,37.0,30.8,29.33,North,360,8.0,18.0,78,0.02,,,0.13,Weather View 32 v70,2013-03-01 20:15:00,
2013-03-01 15:20:00,37.0,30.8,29.33,ENE,67,0.0,18.0,78,0.02,,,0.13,Weather View 32 v70,2013-03-01 20:20:00,
2013-03-01 15:30:00,37.0,30.8,29.34,NNW,337,4.0,18.0,78,0.01,,,0.13,Weather View 32 v70,2013-03-01 20:30:00,
2013-03-01 15:35:00,37.0,30.8,29.34,North,360,3.0,18.0,78,0.01,,,0.13,Weather View 32 v70,2013-03-01 20:35:00,
2013-03-01 15:40:00,37.0,30.8,29.34,North,360,2.0,18.0,78,0.01,,,0.13,Weather View 32 v70,2013-03-01 20:40:00,
2013-03-01 15:45:00,37.0,30.8,29.34,NW,315,4.0,18.0,78,0.01,,,0.13,Weather View 32 v70,2013-03-01 20:45:00,
2013-03-01 15:50:00,36.0,29.8,29.34,NW,315,6.0,18.0,78,0.01,,,0.13,Weather View 32 v70,2013-03-01 20:50:00,
2013-03-01 16:00:00,36.0,30.1,29.34,North,360,3.0,18.0,79,0.01,,,0.13,Weather View 32 v70,2013-03-01 21:00:00,
2013-03-01 16:05:00,36.0,29.8,29.35,North,360,5.0,18.0,78,0.02,,,0.14,Weather View 32 v70,2013-03-01 21:05:00,
2013-03-01 16:15:00,36.0,30.4,29.35,NNE,22,4.0,15.0,80,0.01,,,0.14,Weather View 32 v70,2013-03-01 21:15:00,
2013-03-01 16:20:00,36.0,30.1,29.35,North,360,6.0,12.0,79,0.01,,,0.14,Weather View 32 v70,2013-03-01 21:20:00,
2013-03-01 16:25:00,36.0,30.4,29.35,NNW,337,6.0,12.0,80,0.01,,,0.14,Weather View 32 v70,2013-03-01 21:25:00,
2013-03-01 16:35:00,36.0,30.4,29.35,NNW,337,6.0,10.0,80,0.01,,,0.14,Weather View 32 v70,2013-03-01 21:35:00,
2013-03-01 16:40:00,36.0,30.7,29.35,North,360,2.0,10.0,81,0.01,,,0.14,Weather View 32 v70,2013-03-01 21:40:00,
2013-03-01 16:50:00,36.0,30.7,29.35,NNW,337,3.0,10.0,81,0.01,,,0.14,Weather View 32 v70,2013-03-01 21:50:00,
2013-03-01 17:00:00,35.0,30.1,29.35,NNW,337,2.0,9.0,82,0.01,,,0.14,Weather View 32 v70,2013-03-01 22:00:00,
2013-03-01 17:05:00,35.0,30.4,29.35,NNW,337,5.0,9.0,83,0.00,,,0.14,Weather View 32 v70,2013-03-01 22:05:00,
2013-03-01 17:10:00,35.0,30.4,29.35,North,360,6.0,9.0,83,0.00,,,0.14,Weather View 32 v70,2013-03-01 22:10:00,
2013-03-01 17:15:00,35.0,30.4,29.36,North,360,2.0,9.0,83,0.00,,,0.14,Weather View 32 v70,2013-03-01 22:15:00,
2013-03-01 17:25:00,35.0,30.7,29.36,North,360,5.0,9.0,84,0.00,,,0.14,Weather View 32 v70,2013-03-01 22:25:00,
2013-03-01 17:30:00,35.0,30.7,29.36,North,360,3.0,9.0,84,0.00,,,0.14,Weather View 32 v70,2013-03-01 22:30:00,
2013-03-01 17:35:00,35.0,30.7,29.37,NNW,337,4.0,9.0,84,0.00,,,0.14,Weather View 32 v70,2013-03-01 22:35:00,
2013-03-01 17:40:00,35.0,30.9,29.37,North,360,2.0,9.0,85,0.00,,,0.14,Weather View 32 v70,2013-03-01 22:40:00,
2013-03-01 17:45:00,35.0,30.9,29.37,NNW,337,6.0,9.0,85,0.00,,,0.14,Weather View 32 v70,2013-03-01 22:45:00,
2013-03-01 17:50:00,35.0,30.9,29.37,NW,315,4.0,9.0,85,0.00,,,0.14,Weather View 32 v70,2013-03-01 22:50:00,
2013-03-01 17:55:00,35.0,30.9,29.37,NNW,337,2.0,9.0,85,0.00,,,0.14,Weather View 32 v70,2013-03-01 22:55:00,
2013-03-01 18:05:00,34.0,30.3,29.37,NNW,337,3.0,9.0,86,0.00,,,0.14,Weather View 32 v70,2013-03-01 23:05:00,
2013-03-01 18:10:00,34.0,30.3,29.37,NNW,337,1.0,7.0,86,0.00,,,0.14,Weather View 32 v70,2013-03-01 23:10:00,
2013-03-01 18:15:00,34.0,30.3,29.38,North,360,1.0,7.0,86,0.00,,,0.14,Weather View 32 v70,2013-03-01 23:15:00,
2013-03-01 18:25:00,34.0,30.3,29.38,North,360,2.0,7.0,86,0.00,,,0.14,Weather View 32 v70,2013-03-01 23:25:00,
2013-03-01 18:30:00,34.0,30.5,29.38,North,360,3.0,7.0,87,0.00,,,0.14,Weather View 32 v70,2013-03-01 23:30:00,
2013-03-01 18:35:00,34.0,30.3,29.38,North,360,2.0,7.0,86,0.00,,,0.14,Weather View 32 v70,2013-03-01 23:35:00,
2013-03-01 18:40:00,34.0,30.3,29.38,North,360,3.0,7.0,86,0.00,,,0.14,Weather View 32 v70,2013-03-01 23:40:00,
2013-03-01 18:45:00,34.0,30.3,29.38,North,360,4.0,7.0,86,0.00,,,0.14,Weather View 32 v70,2013-03-01 23:45:00,
2013-03-01 18:55:00,34.0,30.3,29.38,North,360,2.0,6.0,86,0.00,,,0.14,Weather View 32 v70,2013-03-01 23:55:00,
2013-03-01 19:00:00,34.0,30.3,29.38,North,360,1.0,7.0,86,0.00,,,0.14,Weather View 32 v70,2013-03-02 00:00:00,
2013-03-01 19:05:00,34.0,30.5,29.38,North,360,4.0,7.0,87,0.00,,,0.14,Weather View 32 v70,2013-03-02 00:05:00,
2013-03-01 19:10:00,34.0,30.5,29.38,North,360,3.0,7.0,87,0.00,,,0.14,Weather View 32 v70,2013-03-02 00:10:00,
2013-03-01 19:15:00,34.0,30.5,29.38,North,360,0.0,7.0,87,0.00,,,0.14,Weather View 32 v70,2013-03-02 00:15:00,
2013-03-01 19:25:00,34.0,30.8,29.38,North,360,1.0,7.0,88,0.00,,,0.14,Weather View 32 v70,2013-03-02 00:25:00,
2013-03-01 19:30:00,33.0,30.1,29.38,North,360,2.0,7.0,89,0.00,,,0.14,Weather View 32 v70,2013-03-02 00:30:00,
2013-03-01 19:35:00,33.0,30.4,29.38,North,360,3.0,7.0,90,0.00,,,0.14,Weather View 32 v70,2013-03-02 00:35:00,
2013-03-01 19:40:00,33.0,30.4,29.38,North,360,1.0,7.0,90,0.00,,,0.14,Weather View 32 v70,2013-03-02 00:40:00,
2013-03-01 19:50:00,33.0,30.1,29.39,North,360,0.0,7.0,89,0.00,,,0.14,Weather View 32 v70,2013-03-02 00:50:00,
2013-03-01 20:00:00,33.0,30.1,29.39,North,360,0.0,6.0,89,0.00,,,0.14,Weather View 32 v70,2013-03-02 01:00:00,
2013-03-01 20:05:00,33.0,30.1,29.39,North,360,0.0,6.0,89,0.00,,,0.14,Weather View 32 v70,2013-03-02 01:05:00,
2013-03-01 20:10:00,33.0,30.4,29.39,North,360,0.0,6.0,90,0.00,,,0.14,Weather View 32 v70,2013-03-02 01:10:00,
2013-03-01 20:15:00,33.0,30.4,29.39,North,360,0.0,6.0,90,0.00,,,0.14,Weather View 32 v70,2013-03-02 01:15:00,
2013-03-01 20:25:00,33.0,30.9,29.39,North,360,0.0,6.0,92,0.00,,,0.14,Weather View 32 v70,2013-03-02 01:25:00,
2013-03-01 20:30:00,33.0,31.2,29.39,North,360,2.0,6.0,93,0.00,,,0.14,Weather View 32 v70,2013-03-02 01:30:00,
2013-03-01 20:35:00,33.0,31.2,29.39,North,360,1.0,6.0,93,0.00,,,0.14,Weather View 32 v70,2013-03-02 01:35:00,
2013-03-01 20:45:00,33.0,31.2,29.39,North,360,2.0,6.0,93,0.00,,,0.14,Weather View 32 v70,2013-03-02 01:45:00,
2013-03-01 20:50:00,33.0,31.5,29.39,North,360,2.0,6.0,94,0.00,,,0.14,Weather View 32 v70,2013-03-02 01:50:00,
2013-03-01 20:55:00,33.0,31.5,29.39,North,360,0.0,6.0,94,0.00,,,0.14,Weather View 32 v70,2013-03-02 01:55:00,
2013-03-01 21:00:00,33.0,31.5,29.39,NNW,337,0.0,6.0,94,0.00,,,0.14,Weather View 32 v70,2013-03-02 02:00:00,
2013-03-01 21:10:00,33.0,31.5,29.39,North,360,0.0,6.0,94,0.00,,,0.14,Weather View 32 v70,2013-03-02 02:10:00,
2013-03-01 21:19:00,33.0,31.5,29.39,North,360,0.0,6.0,94,0.00,,,0.14,Weather View 32 v70,2013-03-02 02:19:00,
2013-03-01 21:25:00,33.0,31.7,29.39,North,360,1.0,6.0,95,0.00,,,0.14,Weather View 32 v70,2013-03-02 02:25:00,
2013-03-01 21:35:00,32.0,30.7,29.39,North,360,4.0,6.0,95,0.00,,,0.14,Weather View 32 v70,2013-03-02 02:35:00,
2013-03-01 21:40:00,32.0,30.7,29.39,North,360,3.0,6.0,95,0.00,,,0.14,Weather View 32 v70,2013-03-02 02:40:00,
2013-03-01 21:45:00,32.0,30.7,29.40,North,360,4.0,6.0,95,0.00,,,0.14,Weather View 32 v70,2013-03-02 02:45:00,
2013-03-01 21:50:00,32.0,30.7,29.40,North,360,2.0,6.0,95,0.00,,,0.14,Weather View 32 v70,2013-03-02 02:50:00,
2013-03-01 22:00:00,32.0,30.7,29.40,NNW,337,0.0,6.0,95,0.00,,,0.14,Weather View 32 v70,2013-03-02 03:00:00,
2013-03-01 22:05:00,32.0,30.7,29.40,NNW,337,3.0,6.0,95,0.00,,,0.14,Weather View 32 v70,2013-03-02 03:05:00,
2013-03-01 22:10:00,32.0,30.7,29.40,NNW,337,2.0,6.0,95,0.00,,,0.14,Weather View 32 v70,2013-03-02 03:10:00,
2013-03-01 22:15:00,32.0,30.7,29.40,North,360,0.0,6.0,95,0.00,,,0.14,Weather View 32 v70,2013-03-02 03:15:00,
2013-03-01 22:25:00,32.0,30.7,29.40,North,360,0.0,6.0,95,0.00,,,0.14,Weather View 32 v70,2013-03-02 03:25:00,
2013-03-01 22:30:00,32.0,30.7,29.40,North,360,0.0,6.0,95,0.00,,,0.14,Weather View 32 v70,2013-03-02 03:30:00,
2013-03-01 22:35:00,31.0,29.7,29.39,North,360,2.0,6.0,95,0.00,,,0.14,Weather View 32 v70,2013-03-02 03:35:00,
2013-03-01 22:45:00,31.0,29.7,29.40,NNW,337,0.0,6.0,95,0.00,,,0.14,Weather View 32 v70,2013-03-02 03:45:00,
2013-03-01 22:50:00,31.0,29.7,29.40,NNW,337,0.0,6.0,95,0.00,,,0.14,Weather View 32 v70,2013-03-02 03:50:00,
2013-03-01 22:55:00,31.0,29.7,29.40,North,360,1.0,5.0,95,0.00,,,0.14,Weather View 32 v70,2013-03-02 03:55:00,
2013-03-01 23:00:00,31.0,29.7,29.40,North,360,2.0,6.0,95,0.00,,,0.14,Weather View 32 v70,2013-03-02 04:00:00,
2013-03-01 23:05:00,31.0,29.7,29.40,North,360,2.0,6.0,95,0.00,,,0.14,Weather View 32 v70,2013-03-02 04:05:00,
2013-03-01 23:15:00,31.0,29.7,29.39,North,360,2.0,6.0,95,0.00,,,0.14,Weather View 32 v70,2013-03-02 04:15:00,
2013-03-01 23:20:00,31.0,29.7,29.39,North,360,3.0,6.0,95,0.00,,,0.14,Weather View 32 v70,2013-03-02 04:20:00,
2013-03-01 23:30:00,31.0,29.7,29.39,North,360,4.0,6.0,95,0.00,,,0.14,Weather View 32 v70,2013-03-02 04:30:00,
2013-03-01 23:40:00,31.0,29.7,29.39,North,360,4.0,7.0,95,0.00,,,0.14,Weather View 32 v70,2013-03-02 04:40:00,
2013-03-01 23:45:00,31.0,29.7,29.39,North,360,2.0,7.0,95,0.00,,,0.14,Weather View 32 v70,2013-03-02 04:45:00,
2013-03-01 23:50:00,31.0,29.7,29.39,North,360,0.0,7.0,95,0.00,,,0.14,Weather View 32 v70,2013-03-02 04:50:00,